Tracking 31027 objects as of 19-Jul-2025
HD Live streaming from Space Station
objects crossing your sky now

STARLINK-31941

Track STARLINK-31941 now!
10-day predictions
STARLINK-31941 is classified as:


NORAD ID: 59866
Int'l Code: 2024-098J
Perigee: 489.2 km
Apogee: 491.1 km
Inclination: 43.0 °
Period: 94.3 minutes
Semi major axis: 6861 km
RCS: Unknown
Launch date: May 24, 2024
Source: United States (US)
Launch site: AIR FORCE EASTERN TEST RANGE (AFETR)
Your satellite tracking list
FLOCK 4X 28
Track 1 satellite(s)




NASA's NSSDC Master Catalog

Two Line Element Set (TLE):
1 59866U 24098J   25199.25662827  .00002313  00000-0  93528-4 0  9991
2 59866  43.0019 144.1987 0001363 267.2372  92.8323 15.27583031 66193
Source of the keplerian elements: AFSPC